This is the latest recevied weather packets stored in our database for station/object N3TJJ-2. If no packets are shown the sender has not sent any weather packets the latest 10 day(s).
| Time | Temp. | Humidity | Pressure | Rain* | Wind** | Luminosity | Snow |
|---|---|---|---|---|---|---|---|
| 1778002156 | 26.67° C | 44% | 1010.4 hPa | 0 mm | - | - | - |
| 1778001806 | 27.22° C | 43% | 1010.6 hPa | 0 mm | - | - | - |
| 1778001454 | 26.67° C | 41% | 1010.6 hPa | 0 mm | - | - | - |
| 1778001079 | 27.22° C | 42% | 1010.5 hPa | 0 mm | - | - | - |
| 1778000721 | 27.78° C | 41% | 1010.8 hPa | 0 mm | - | - | - |
| 1778000355 | 26.67° C | 43% | 1010.8 hPa | 0 mm | - | - | - |
| 1777999996 | 26.67° C | 41% | 1010.9 hPa | 0 mm | - | - | - |
| 1777999637 | 26.67° C | 42% | 1011 hPa | 0 mm | - | - | - |
| 1777999278 | 26.67° C | 41% | 1011.1 hPa | 0 mm | - | - | - |
| 1777998921 | 26.11° C | 41% | 1011.1 hPa | 0 mm | - | - | - |
| 1777998556 | 26.11° C | 41% | 1011.3 hPa | 0 mm | - | - | - |
| 1777998195 | 26.11° C | 43% | 1011.2 hPa | 0 mm | - | - | - |
| 1777997836 | 26.11° C | 44% | 1011.3 hPa | 0 mm | - | - | - |
| 1777997476 | 26.11° C | 43% | 1011.3 hPa | 0 mm | - | - | - |
| 1777997123 | 26.11° C | 44% | 1011.3 hPa | 0 mm | - | - | - |
| 1777996756 | 26.11° C | 44% | 1011.4 hPa | 0 mm | - | - | - |
| 1777996395 | 25.56° C | 44% | 1011.4 hPa | 0 mm | - | - | - |
| 1777996036 | 25.56° C | 44% | 1011.4 hPa | 0 mm | - | - | - |
| 1777995676 | 25.56° C | 44% | 1011.4 hPa | 0 mm | - | - | - |
| 1777995315 | 25.56° C | 46% | 1011.4 hPa | 0 mm | - | - | - |
| 1777994957 | 25.56° C | 46% | 1011.4 hPa | 0 mm | - | - | - |
| 1777994599 | 25° C | 46% | 1011.6 hPa | 0 mm | - | - | - |
| 1777994237 | 25° C | 46% | 1011.6 hPa | 0 mm | - | - | - |
| 1777993875 | 25° C | 47% | 1011.6 hPa | 0 mm | - | - | - |
| 1777993516 | 25° C | 48% | 1011.5 hPa | 0 mm | - | - | - |
* Rain latest hour (hover to see other rain measurements)
** Current wind speed in m/s (hover to see current wind gust speed)